Location: Newark
(50.0306°N, 2.3272°E)
Time: 02:52:42
(UTC+00:00)

Vanguard 1 - Pass Details

Date: 10 December 2019
Orbit: 651 x 3832 km, 34.2° (Epoch: 23 January)

Event Time Altitude Azimuth Distance (km) Brightness Sun altitude
Exits shadow 00:52:58 12° 145° (SE) 6,714 14.1 -59.6°
Maximum altitude 00:58:54 14° 129° (SE) 6,609 14.1 -59.1°
Drops below altitude 10° 01:07:38 10° 106° (ESE) 6,792 14.4 -58.2°
Sets 01:16:49 0° 86° (E) 7,409 14.9 -57.2°
